Time,TemperatureF,DewpointF,PressureIn,WindDirection,WindDirectionDegrees,WindSpeedMPH,WindSpeedGustMPH,Humidity,HourlyPrecipIn,Conditions,Clouds,dailyrainin,SolarRadiationWatts/m^2,SoftwareType,DateUTC
2013-07-13 00:02:00,66.5,60.5,30.03,ESE,107,0.0,0.0,81,0.00,CLR,,0.00,0.0,WeatherDisplay:10.37,2013-07-13 05:02:00,
2013-07-13 00:07:00,66.3,60.3,30.03,ESE,106,0.0,0.0,81,0.00,CLR,,0.00,0.0,WeatherDisplay:10.37,2013-07-13 05:07:00,
2013-07-13 00:12:00,66.1,60.4,30.03,ESE,107,0.0,0.0,82,0.00,CLR,,0.00,0.0,WeatherDisplay:10.37,2013-07-13 05:12:00,
2013-07-13 00:17:00,66.0,60.3,30.03,ESE,107,0.0,0.0,82,0.00,CLR,,0.00,0.0,WeatherDisplay:10.37,2013-07-13 05:17:00,
2013-07-13 00:22:00,65.8,60.2,30.04,ESE,107,0.0,0.0,82,0.00,CLR,,0.00,0.0,WeatherDisplay:10.37,2013-07-13 05:22:00,
2013-07-13 00:27:00,65.6,60.0,30.04,ESE,107,0.0,0.0,82,0.00,CLR,,0.00,0.0,WeatherDisplay:10.37,2013-07-13 05:27:00,
2013-07-13 00:32:00,65.4,59.4,30.04,ESE,107,0.0,0.0,81,0.00,CLR,,0.00,0.0,WeatherDisplay:10.37,2013-07-13 05:32:00,
2013-07-13 00:37:00,65.3,59.7,30.04,ESE,106,0.0,0.0,82,0.00,CLR,,0.00,0.0,WeatherDisplay:10.37,2013-07-13 05:37:00,
2013-07-13 00:42:00,65.2,59.6,30.04,ESE,106,0.0,0.0,82,0.00,CLR,,0.00,0.0,WeatherDisplay:10.37,2013-07-13 05:42:00,
2013-07-13 00:47:00,65.1,59.5,30.04,ESE,107,0.0,0.0,82,0.00,CLR,,0.00,0.0,WeatherDisplay:10.37,2013-07-13 05:47:00,
2013-07-13 00:52:00,65.0,59.4,30.05,ESE,106,0.0,0.0,82,0.00,CLR,,0.00,0.0,WeatherDisplay:10.37,2013-07-13 05:52:00,
2013-07-13 00:57:00,64.8,59.2,30.05,ESE,107,0.0,0.0,82,0.00,CLR,,0.00,0.0,WeatherDisplay:10.37,2013-07-13 05:57:00,
2013-07-13 01:02:00,64.7,59.1,30.06,ESE,106,0.0,0.0,82,0.00,CLR,,0.00,0.0,WeatherDisplay:10.37,2013-07-13 06:02:00,
2013-07-13 01:07:00,64.6,59.0,30.06,ESE,107,0.0,0.0,82,0.00,CLR,,0.00,0.0,WeatherDisplay:10.37,2013-07-13 06:07:00,
2013-07-13 01:12:00,64.4,58.8,30.06,ESE,107,0.0,0.0,82,0.00,CLR,,0.00,0.0,WeatherDisplay:10.37,2013-07-13 06:12:00,
2013-07-13 01:17:00,64.3,59.0,30.06,ESE,106,0.0,0.0,83,0.00,CLR,,0.00,0.0,WeatherDisplay:10.37,2013-07-13 06:17:00,
2013-07-13 01:22:00,64.2,59.3,30.06,ESE,107,0.0,0.0,84,0.00,CLR,,0.00,0.0,WeatherDisplay:10.37,2013-07-13 06:22:00,
2013-07-13 01:27:00,64.1,59.2,30.06,ESE,106,0.0,0.0,84,0.00,CLR,,0.00,0.0,WeatherDisplay:10.37,2013-07-13 06:27:00,
2013-07-13 01:32:00,64.0,59.1,30.06,ESE,106,0.0,0.0,84,0.00,CLR,,0.00,0.0,WeatherDisplay:10.37,2013-07-13 06:32:00,
2013-07-13 01:37:00,63.9,59.3,30.06,ESE,107,0.0,0.0,85,0.00,CLR,,0.00,0.0,WeatherDisplay:10.37,2013-07-13 06:37:00,
2013-07-13 01:42:00,63.7,59.1,30.07,ESE,107,0.0,0.0,85,0.00,CLR,,0.00,0.0,WeatherDisplay:10.37,2013-07-13 06:42:00,
2013-07-13 01:47:00,63.6,59.0,30.07,ESE,107,0.0,0.0,85,0.00,CLR,,0.00,0.0,WeatherDisplay:10.37,2013-07-13 06:47:00,
2013-07-13 01:52:00,63.4,58.8,30.07,ESE,107,0.0,0.0,85,0.00,CLR,,0.00,0.0,WeatherDisplay:10.37,2013-07-13 06:52:00,
2013-07-13 01:57:00,63.3,58.7,30.07,ESE,107,0.0,0.0,85,0.00,CLR,,0.00,0.0,WeatherDisplay:10.37,2013-07-13 06:57:00,
2013-07-13 02:02:00,63.1,58.5,30.07,ESE,107,0.0,0.0,85,0.00,CLR,,0.00,0.0,WeatherDisplay:10.37,2013-07-13 07:02:00,
2013-07-13 02:07:00,63.0,58.4,30.07,ESE,106,0.0,0.0,85,0.00,CLR,,0.00,0.0,WeatherDisplay:10.37,2013-07-13 07:07:00,
2013-07-13 02:12:00,62.8,58.2,30.07,ESE,107,0.0,0.0,85,0.00,CLR,,0.00,0.0,WeatherDisplay:10.37,2013-07-13 07:12:00,
2013-07-13 02:17:00,62.7,58.5,30.07,ESE,106,0.0,0.0,86,0.00,CLR,,0.00,0.0,WeatherDisplay:10.37,2013-07-13 07:17:00,
2013-07-13 02:22:00,62.6,58.4,30.07,ESE,106,0.0,0.0,86,0.00,CLR,,0.00,0.0,WeatherDisplay:10.37,2013-07-13 07:22:00,
2013-07-13 02:27:00,62.4,58.2,30.07,ESE,107,0.0,0.0,86,0.00,CLR,,0.00,0.0,WeatherDisplay:10.37,2013-07-13 07:27:00,
2013-07-13 02:32:00,62.2,58.0,30.07,ESE,106,0.0,0.0,86,0.00,CLR,,0.00,0.0,WeatherDisplay:10.37,2013-07-13 07:32:00,
2013-07-13 02:37:00,62.0,57.8,30.07,ESE,107,0.0,0.0,86,0.00,CLR,,0.00,0.0,WeatherDisplay:10.37,2013-07-13 07:37:00,
2013-07-13 02:42:00,61.8,57.6,30.08,ESE,106,0.0,0.0,86,0.00,CLR,,0.00,0.0,WeatherDisplay:10.37,2013-07-13 07:42:00,
2013-07-13 02:47:00,61.6,57.4,30.07,ESE,106,0.0,0.0,86,0.00,CLR,,0.00,0.0,WeatherDisplay:10.37,2013-07-13 07:47:00,
2013-07-13 02:52:00,61.4,57.2,30.07,ESE,106,0.0,0.0,86,0.00,CLR,,0.00,0.0,WeatherDisplay:10.37,2013-07-13 07:52:00,
2013-07-13 02:57:00,61.3,57.4,30.07,ESE,107,0.0,0.0,87,0.00,CLR,,0.00,0.0,WeatherDisplay:10.37,2013-07-13 07:57:00,
2013-07-13 03:02:00,61.3,57.7,30.07,ESE,107,0.0,0.0,88,0.00,CLR,,0.00,0.0,WeatherDisplay:10.37,2013-07-13 08:02:00,
2013-07-13 03:07:00,61.1,57.5,30.07,ESE,107,0.0,0.0,88,0.00,CLR,,0.00,0.0,WeatherDisplay:10.37,2013-07-13 08:07:00,
2013-07-13 03:12:00,61.0,57.4,30.07,ESE,107,0.0,0.0,88,0.00,CLR,,0.00,0.0,WeatherDisplay:10.37,2013-07-13 08:12:00,
2013-07-13 03:17:00,60.8,57.2,30.06,ESE,107,0.0,0.0,88,0.00,CLR,,0.00,0.0,WeatherDisplay:10.37,2013-07-13 08:17:00,
2013-07-13 03:22:00,60.7,57.1,30.06,ESE,107,0.0,0.0,88,0.00,CLR,,0.00,0.0,WeatherDisplay:10.37,2013-07-13 08:22:00,
2013-07-13 03:27:00,60.5,56.9,30.06,ESE,106,0.0,0.0,88,0.00,CLR,,0.00,0.0,WeatherDisplay:10.37,2013-07-13 08:27:00,
2013-07-13 03:32:00,60.4,57.1,30.05,ESE,107,0.0,0.0,89,0.00,CLR,,0.00,0.0,WeatherDisplay:10.37,2013-07-13 08:32:00,
2013-07-13 03:37:00,60.2,56.9,30.05,ESE,107,0.0,0.0,89,0.00,CLR,,0.00,0.0,WeatherDisplay:10.37,2013-07-13 08:37:00,
2013-07-13 03:42:00,60.1,56.8,30.05,ESE,107,0.0,0.0,89,0.00,CLR,,0.00,0.0,WeatherDisplay:10.37,2013-07-13 08:42:00,
2013-07-13 03:47:00,60.0,56.7,30.05,ESE,107,0.0,0.0,89,0.00,CLR,,0.00,0.0,WeatherDisplay:10.37,2013-07-13 08:47:00,
2013-07-13 03:52:00,59.8,56.6,30.05,ESE,107,0.0,0.0,89,0.00,CLR,,0.00,0.0,WeatherDisplay:10.37,2013-07-13 08:52:00,
2013-07-13 03:57:00,59.7,56.5,30.06,ESE,107,0.0,0.0,89,0.00,CLR,,0.00,0.0,WeatherDisplay:10.37,2013-07-13 08:57:00,
2013-07-13 04:02:00,59.6,56.4,30.06,ESE,106,0.0,0.0,89,0.00,CLR,,0.00,0.0,WeatherDisplay:10.37,2013-07-13 09:02:00,
2013-07-13 04:07:00,59.5,56.3,30.06,ESE,107,0.0,0.0,89,0.00,CLR,,0.00,0.0,WeatherDisplay:10.37,2013-07-13 09:07:00,
2013-07-13 04:12:00,59.6,57.0,30.06,ESE,106,0.0,0.0,91,0.00,CLR,,0.00,0.0,WeatherDisplay:10.37,2013-07-13 09:12:00,
2013-07-13 04:17:00,59.7,57.1,30.06,ESE,107,0.0,0.0,91,0.00,CLR,,0.00,0.0,WeatherDisplay:10.37,2013-07-13 09:17:00,
2013-07-13 04:22:00,59.7,57.1,30.07,ESE,107,0.0,0.0,91,0.00,CLR,,0.00,0.0,WeatherDisplay:10.37,2013-07-13 09:22:00,
2013-07-13 04:28:00,59.7,57.4,30.07,ESE,106,0.0,0.0,92,0.00,CLR,,0.00,0.0,WeatherDisplay:10.37,2013-07-13 09:28:00,
2013-07-13 04:33:00,59.6,57.3,30.07,ESE,107,0.0,0.0,92,0.00,CLR,,0.00,0.0,WeatherDisplay:10.37,2013-07-13 09:33:00,
2013-07-13 04:38:00,59.6,57.3,30.07,ESE,106,0.0,0.0,92,0.00,CLR,,0.00,0.0,WeatherDisplay:10.37,2013-07-13 09:38:00,
2013-07-13 04:43:00,59.5,57.2,30.07,ESE,107,0.0,0.0,92,0.00,CLR,,0.00,0.0,WeatherDisplay:10.37,2013-07-13 09:43:00,
2013-07-13 04:48:00,59.4,57.1,30.07,ESE,106,0.0,0.0,92,0.00,CLR,,0.00,0.0,WeatherDisplay:10.37,2013-07-13 09:48:00,
2013-07-13 04:53:00,59.3,57.0,30.07,ESE,107,0.0,0.0,92,0.00,CLR,,0.00,0.0,WeatherDisplay:10.37,2013-07-13 09:53:00,
2013-07-13 04:58:00,59.2,56.9,30.07,ESE,107,0.0,0.0,92,0.00,CLR,,0.00,0.0,WeatherDisplay:10.37,2013-07-13 09:58:00,
2013-07-13 05:03:00,59.0,56.7,30.07,ESE,107,0.0,0.0,92,0.00,CLR,,0.00,0.0,WeatherDisplay:10.37,2013-07-13 10:03:00,
2013-07-13 05:08:00,59.0,56.7,30.07,ESE,107,0.0,0.0,92,0.00,CLR,,0.00,0.0,WeatherDisplay:10.37,2013-07-13 10:08:00,
2013-07-13 05:13:00,59.0,56.7,30.07,ESE,107,0.0,0.0,92,0.00,CLR,,0.00,0.0,WeatherDisplay:10.37,2013-07-13 10:13:00,
2013-07-13 05:18:00,59.0,56.7,30.07,ESE,106,0.0,0.0,92,0.00,CLR,,0.00,0.0,WeatherDisplay:10.37,2013-07-13 10:18:00,
2013-07-13 05:23:00,59.0,56.7,30.07,ESE,106,0.0,0.0,92,0.00,CLR,,0.00,0.0,WeatherDisplay:10.37,2013-07-13 10:23:00,
2013-07-13 05:28:00,58.8,56.5,30.07,ESE,107,0.0,0.0,92,0.00,CLR,,0.00,0.0,WeatherDisplay:10.37,2013-07-13 10:28:00,
2013-07-13 05:33:00,58.7,56.4,30.07,ESE,107,0.0,0.0,92,0.00,CLR,,0.00,5.0,WeatherDisplay:10.37,2013-07-13 10:33:00,
2013-07-13 05:38:00,58.5,56.2,30.08,ESE,107,0.0,0.0,92,0.00,CLR,,0.00,7.0,WeatherDisplay:10.37,2013-07-13 10:38:00,
2013-07-13 05:43:00,58.4,56.1,30.08,ESE,107,0.0,0.0,92,0.00,SCT,,0.00,9.0,WeatherDisplay:10.37,2013-07-13 10:43:00,
2013-07-13 05:48:00,58.3,56.0,30.08,ESE,107,0.0,0.0,92,0.00,BKN,,0.00,12.0,WeatherDisplay:10.37,2013-07-13 10:48:00,
2013-07-13 05:53:00,58.2,55.9,30.08,ESE,107,0.0,0.0,92,0.00,BKN,,0.00,21.0,WeatherDisplay:10.37,2013-07-13 10:53:00,
2013-07-13 05:58:00,58.2,55.9,30.08,ESE,106,0.0,0.0,92,0.00,BKN,,0.00,33.0,WeatherDisplay:10.37,2013-07-13 10:58:00,
2013-07-13 06:03:00,58.2,55.9,30.08,ESE,106,0.0,0.0,92,0.00,SCT,,0.00,49.0,WeatherDisplay:10.37,2013-07-13 11:03:00,
2013-07-13 06:08:00,58.3,56.3,30.08,ESE,106,0.0,0.0,93,0.00,SCT,,0.00,69.0,WeatherDisplay:10.37,2013-07-13 11:08:00,
2013-07-13 06:13:00,58.4,56.4,30.08,ESE,107,0.0,0.0,93,0.00,FEW,,0.00,90.0,WeatherDisplay:10.37,2013-07-13 11:13:00,
2013-07-13 06:18:00,58.6,56.6,30.08,ESE,107,0.0,0.0,93,0.00,FEW,,0.00,107.0,WeatherDisplay:10.37,2013-07-13 11:18:00,
2013-07-13 06:23:00,59.0,57.3,30.08,ESE,107,0.0,0.0,94,0.00,FEW,,0.00,125.0,WeatherDisplay:10.37,2013-07-13 11:23:00,
2013-07-13 06:28:00,59.7,58.0,30.09,ESE,107,0.0,0.0,94,0.00,FEW,,0.00,141.0,WeatherDisplay:10.37,2013-07-13 11:28:00,
2013-07-13 06:33:00,60.1,58.4,30.09,ESE,106,0.0,0.0,94,0.00,FEW,,0.00,155.0,WeatherDisplay:10.37,2013-07-13 11:33:00,
2013-07-13 06:38:00,60.3,58.3,30.10,ESE,107,0.0,0.0,93,0.00,FEW,,0.00,167.0,WeatherDisplay:10.37,2013-07-13 11:38:00,
2013-07-13 06:43:00,60.8,59.1,30.11,ESE,106,0.0,0.0,94,0.00,FEW,,0.00,144.0,WeatherDisplay:10.37,2013-07-13 11:43:00,
2013-07-13 06:48:00,61.2,59.2,30.11,ESE,107,0.0,0.0,93,0.00,SCT,,0.00,169.0,WeatherDisplay:10.37,2013-07-13 11:48:00,
2013-07-13 06:53:00,61.5,59.2,30.10,ESE,107,0.0,0.0,92,0.00,SCT,,0.00,118.0,WeatherDisplay:10.37,2013-07-13 11:53:00,
2013-07-13 06:58:00,61.8,59.5,30.09,ESE,107,0.0,0.0,92,0.00,SCT,,0.00,128.0,WeatherDisplay:10.37,2013-07-13 11:58:00,
2013-07-13 07:03:00,62.0,59.6,30.09,ESE,107,0.0,0.0,92,0.00,SCT,,0.00,193.0,WeatherDisplay:10.37,2013-07-13 12:03:00,
2013-07-13 07:08:00,62.3,59.9,30.09,ESE,107,0.0,0.0,92,0.00,SCT,,0.00,167.0,WeatherDisplay:10.37,2013-07-13 12:08:00,
2013-07-13 07:13:00,62.7,60.3,30.09,ESE,106,0.0,0.0,92,0.00,BKN,,0.00,141.0,WeatherDisplay:10.37,2013-07-13 12:13:00,
2013-07-13 07:18:00,63.2,60.5,30.09,ESE,107,0.0,0.0,91,0.00,BKN,,0.00,206.0,WeatherDisplay:10.37,2013-07-13 12:18:00,
2013-07-13 07:23:00,63.6,60.6,30.09,ESE,107,0.0,0.0,90,0.00,SCT,,0.00,195.0,WeatherDisplay:10.37,2013-07-13 12:23:00,
2013-07-13 07:28:00,64.0,61.0,30.09,ESE,107,0.0,0.0,90,0.00,SCT,,0.00,190.0,WeatherDisplay:10.37,2013-07-13 12:28:00,
2013-07-13 07:33:00,64.4,61.4,30.09,ESE,107,0.0,0.0,90,0.00,SCT,,0.00,214.0,WeatherDisplay:10.37,2013-07-13 12:33:00,
2013-07-13 07:38:00,64.8,61.5,30.09,ESE,107,0.0,0.0,89,0.00,SCT,,0.00,274.0,WeatherDisplay:10.37,2013-07-13 12:38:00,
2013-07-13 07:43:00,65.3,61.7,30.09,ESE,107,0.0,0.0,88,0.00,SCT,,0.00,320.0,WeatherDisplay:10.37,2013-07-13 12:43:00,
2013-07-13 07:48:00,65.7,62.0,30.09,ESE,107,0.0,0.0,88,0.00,SCT,,0.00,311.0,WeatherDisplay:10.37,2013-07-13 12:48:00,
2013-07-13 07:53:00,66.1,62.4,30.10,ESE,107,0.0,0.0,88,0.00,SCT,,0.00,341.0,WeatherDisplay:10.37,2013-07-13 12:53:00,
2013-07-13 07:58:00,66.5,62.5,30.10,ESE,107,0.0,0.0,87,0.00,SCT,,0.00,327.0,WeatherDisplay:10.37,2013-07-13 12:58:00,
2013-07-13 08:03:00,66.9,62.9,30.11,ESE,107,0.0,0.0,87,0.00,SCT,,0.00,366.0,WeatherDisplay:10.37,2013-07-13 13:03:00,
2013-07-13 08:08:00,67.6,63.6,30.11,ESE,107,0.0,0.0,87,0.00,SCT,,0.00,369.0,WeatherDisplay:10.37,2013-07-13 13:08:00,
2013-07-13 08:13:00,68.3,63.9,30.11,ESE,107,0.0,0.0,86,0.00,SCT,,0.00,392.0,WeatherDisplay:10.37,2013-07-13 13:13:00,
2013-07-13 08:18:00,69.0,64.3,30.11,ESE,107,0.0,0.0,85,0.00,SCT,,0.00,406.0,WeatherDisplay:10.37,2013-07-13 13:18:00,
2013-07-13 08:23:00,69.7,65.0,30.11,ESE,107,0.0,0.0,85,0.00,SCT,,0.00,424.0,WeatherDisplay:10.37,2013-07-13 13:23:00,
2013-07-13 08:28:00,70.5,65.4,30.11,ESE,107,0.0,0.0,84,0.00,SCT,,0.00,452.0,WeatherDisplay:10.37,2013-07-13 13:28:00,
2013-07-13 08:33:00,71.3,65.2,30.11,ESE,107,0.0,0.0,81,0.00,SCT,,0.00,445.0,WeatherDisplay:10.37,2013-07-13 13:33:00,
2013-07-13 08:38:00,72.0,65.1,30.11,ESE,107,0.0,0.0,79,0.00,SCT,,0.00,408.0,WeatherDisplay:10.37,2013-07-13 13:38:00,
2013-07-13 08:43:00,72.5,65.2,30.11,ESE,107,0.0,0.0,78,0.00,SCT,,0.00,394.0,WeatherDisplay:10.37,2013-07-13 13:43:00,
2013-07-13 08:48:00,73.1,65.5,30.11,ESE,107,0.0,0.0,77,0.00,SCT,,0.00,387.0,WeatherDisplay:10.37,2013-07-13 13:48:00,
2013-07-13 08:53:00,73.6,65.6,30.11,ESE,107,0.0,0.0,76,0.00,SCT,,0.00,401.0,WeatherDisplay:10.37,2013-07-13 13:53:00,
2013-07-13 08:58:00,74.0,65.6,30.10,ESE,107,2.3,2.3,75,0.00,SCT,,0.00,420.0,WeatherDisplay:10.37,2013-07-13 13:58:00,
2013-07-13 09:03:00,74.4,65.6,30.10,ESE,107,0.0,0.0,74,0.00,SCT,,0.00,443.0,WeatherDisplay:10.37,2013-07-13 14:03:00,
2013-07-13 09:08:00,74.8,66.0,30.10,ESE,109,3.5,0.0,74,0.00,SCT,,0.00,438.0,WeatherDisplay:10.37,2013-07-13 14:08:00,
2013-07-13 09:13:00,75.2,65.9,30.10,ESE,109,0.0,0.0,73,0.00,SCT,,0.00,436.0,WeatherDisplay:10.37,2013-07-13 14:13:00,
2013-07-13 09:18:00,75.5,65.8,30.09,SE,126,4.6,4.6,72,0.00,SCT,,0.00,422.0,WeatherDisplay:10.37,2013-07-13 14:18:00,
2013-07-13 09:23:00,75.8,65.3,30.10,SE,126,0.0,0.0,70,0.00,SCT,,0.00,438.0,WeatherDisplay:10.37,2013-07-13 14:23:00,
2013-07-13 09:28:00,76.1,65.6,30.09,SE,126,0.0,0.0,70,0.00,SCT,,0.00,445.0,WeatherDisplay:10.37,2013-07-13 14:28:00,
2013-07-13 09:33:00,76.2,65.3,30.09,SSE,148,2.3,2.3,69,0.00,SCT,,0.00,438.0,WeatherDisplay:10.37,2013-07-13 14:33:00,
2013-07-13 09:38:00,76.4,65.9,30.09,SSE,148,3.0,3.0,70,0.00,SCT,,0.00,443.0,WeatherDisplay:10.37,2013-07-13 14:38:00,
2013-07-13 09:43:00,76.6,65.7,30.09,SSE,149,3.5,0.0,69,0.00,SCT,,0.00,429.0,WeatherDisplay:10.37,2013-07-13 14:43:00,
2013-07-13 09:48:00,76.9,65.5,30.10,SSE,148,0.0,0.0,68,0.00,SCT,,0.00,422.0,WeatherDisplay:10.37,2013-07-13 14:48:00,
2013-07-13 09:53:00,77.1,65.3,30.10,SSE,148,0.0,0.0,67,0.00,BKN,,0.00,434.0,WeatherDisplay:10.37,2013-07-13 14:53:00,
2013-07-13 09:58:00,77.4,65.1,30.10,SSE,148,4.6,4.6,66,0.00,BKN,,0.00,455.0,WeatherDisplay:10.37,2013-07-13 14:58:00,
2013-07-13 10:03:00,77.6,65.3,30.10,SSE,149,1.2,0.0,66,0.00,SCT,,0.00,487.0,WeatherDisplay:10.37,2013-07-13 15:03:00,
2013-07-13 10:08:00,77.8,65.1,30.10,SSE,152,6.9,6.9,65,0.00,SCT,,0.00,471.0,WeatherDisplay:10.37,2013-07-13 15:08:00,
2013-07-13 10:13:00,78.0,65.3,30.10,SSE,157,0.0,1.5,65,0.00,SCT,,0.00,497.0,WeatherDisplay:10.37,2013-07-13 15:13:00,
2013-07-13 10:18:00,78.0,65.3,30.10,SSE,161,3.5,0.0,65,0.00,SCT,,0.00,520.0,WeatherDisplay:10.37,2013-07-13 15:18:00,
2013-07-13 10:24:00,78.2,65.9,30.10,SSE,161,0.0,2.8,66,0.00,SCT,,0.00,540.0,WeatherDisplay:10.37,2013-07-13 15:24:00,
2013-07-13 10:28:00,78.5,66.6,30.10,SSE,161,0.0,0.0,67,0.00,SCT,,0.00,534.0,WeatherDisplay:10.37,2013-07-13 15:28:00,
2013-07-13 10:34:00,78.5,65.8,30.10,SSE,168,3.5,3.5,65,0.00,SCT,,0.00,548.0,WeatherDisplay:10.37,2013-07-13 15:34:00,
2013-07-13 10:39:00,78.6,66.7,30.10,SSE,168,0.0,0.0,67,0.00,SCT,,0.00,552.0,WeatherDisplay:10.37,2013-07-13 15:39:00,
2013-07-13 10:44:00,79.1,67.6,30.10,SSE,168,0.0,0.0,68,0.00,SCT,,0.00,547.0,WeatherDisplay:10.37,2013-07-13 15:44:00,
2013-07-13 10:49:00,79.6,67.7,30.10,SSE,168,0.0,0.0,67,0.00,SCT,,0.00,570.0,WeatherDisplay:10.37,2013-07-13 15:49:00,
2013-07-13 10:54:00,80.0,66.7,30.10,SE,146,0.0,0.0,64,0.00,SCT,,0.00,559.0,WeatherDisplay:10.37,2013-07-13 15:54:00,
2013-07-13 10:59:00,80.3,67.0,30.10,SSE,148,0.0,0.0,64,0.00,SCT,,0.00,557.0,WeatherDisplay:10.37,2013-07-13 15:59:00,
2013-07-13 11:04:00,80.6,65.9,30.10,SSE,157,3.5,3.5,61,0.00,SCT,,0.00,554.0,WeatherDisplay:10.37,2013-07-13 16:04:00,
2013-07-13 11:09:00,80.7,66.5,30.10,SSE,157,3.5,3.5,62,0.00,SCT,,0.00,578.0,WeatherDisplay:10.37,2013-07-13 16:09:00,
2013-07-13 11:14:00,81.0,67.2,30.09,SSE,157,0.0,0.0,63,0.00,SCT,,0.00,649.0,WeatherDisplay:10.37,2013-07-13 16:14:00,
2013-07-13 11:19:00,81.3,66.6,30.09,SE,138,0.0,0.0,61,0.00,SCT,,0.00,599.0,WeatherDisplay:10.37,2013-07-13 16:19:00,
2013-07-13 11:24:00,81.6,67.3,30.10,SE,138,0.0,0.0,62,0.00,SCT,,0.00,664.0,WeatherDisplay:10.37,2013-07-13 16:24:00,
2013-07-13 11:29:00,81.7,66.5,30.09,SSE,165,1.2,0.0,60,0.00,SCT,,0.00,643.0,WeatherDisplay:10.37,2013-07-13 16:29:00,
2013-07-13 11:34:00,81.8,66.1,30.09,SSE,165,0.0,0.0,59,0.00,SCT,,0.00,647.0,WeatherDisplay:10.37,2013-07-13 16:34:00,
2013-07-13 11:39:00,81.9,66.2,30.09,SSE,165,10.4,10.4,59,0.00,SCT,,0.00,705.0,WeatherDisplay:10.37,2013-07-13 16:39:00,
2013-07-13 11:44:00,81.8,66.1,30.09,SSE,159,6.9,6.9,59,0.00,SCT,,0.00,657.0,WeatherDisplay:10.37,2013-07-13 16:44:00,
2013-07-13 11:49:00,81.7,66.5,30.09,SE,136,3.5,3.5,60,0.00,SCT,,0.00,613.0,WeatherDisplay:10.37,2013-07-13 16:49:00,
2013-07-13 11:54:00,82.1,67.8,30.09,SE,136,0.0,0.0,62,0.00,SCT,,0.00,687.0,WeatherDisplay:10.37,2013-07-13 16:54:00,
2013-07-13 11:59:00,82.2,66.0,30.08,SE,136,4.6,4.6,58,0.00,SCT,,0.00,721.0,WeatherDisplay:10.37,2013-07-13 16:59:00,
2013-07-13 12:04:00,82.3,66.0,30.09,South,182,0.0,0.0,58,0.00,SCT,,0.00,717.0,WeatherDisplay:10.37,2013-07-13 17:04:00,
2013-07-13 12:09:00,82.5,66.2,30.09,South,180,6.9,6.9,58,0.00,SCT,,0.00,691.0,WeatherDisplay:10.37,2013-07-13 17:09:00,
2013-07-13 12:14:00,82.8,67.0,30.08,South,180,1.0,0.0,59,0.00,SCT,,0.00,780.0,WeatherDisplay:10.37,2013-07-13 17:14:00,
2013-07-13 12:19:00,83.2,64.8,30.08,SE,131,4.6,4.6,54,0.00,SCT,,0.00,744.0,WeatherDisplay:10.37,2013-07-13 17:19:00,
2013-07-13 12:24:00,83.4,67.1,30.08,SE,134,2.3,2.3,58,0.00,SCT,,0.00,814.0,WeatherDisplay:10.37,2013-07-13 17:24:00,
2013-07-13 12:29:00,83.8,65.9,30.08,SE,138,0.0,0.0,55,0.00,SCT,,0.00,671.0,WeatherDisplay:10.37,2013-07-13 17:29:00,
2013-07-13 12:34:00,84.3,66.4,30.08,SE,141,5.8,5.8,55,0.00,SCT,,0.00,846.0,WeatherDisplay:10.37,2013-07-13 17:34:00,
2013-07-13 12:39:00,84.4,66.5,30.09,SSE,161,6.9,6.9,55,0.00,SCT,,0.00,858.0,WeatherDisplay:10.37,2013-07-13 17:39:00,
2013-07-13 12:44:00,84.4,65.4,30.09,ESE,123,1.2,1.2,53,0.00,FEW,,0.00,752.0,WeatherDisplay:10.37,2013-07-13 17:44:00,
2013-07-13 12:49:00,84.5,66.6,30.08,ESE,110,0.0,0.0,55,0.00,FEW,,0.00,965.0,WeatherDisplay:10.37,2013-07-13 17:49:00,
2013-07-13 12:54:00,84.8,66.3,30.08,ESE,116,5.8,5.8,54,0.00,FEW,,0.00,1028.0,WeatherDisplay:10.37,2013-07-13 17:54:00,
2013-07-13 12:59:00,85.3,67.8,30.08,ESE,118,0.0,0.0,56,0.00,CLR,,0.00,932.0,WeatherDisplay:10.37,2013-07-13 17:59:00,
2013-07-13 13:04:00,85.6,66.5,30.08,ESE,121,1.2,0.0,53,0.00,FEW,,0.00,990.0,WeatherDisplay:10.37,2013-07-13 18:04:00,
2013-07-13 13:09:00,85.6,67.0,30.08,East,92,1.2,0.0,54,0.00,FEW,,0.00,951.0,WeatherDisplay:10.37,2013-07-13 18:09:00,
2013-07-13 13:14:00,85.7,67.1,30.08,East,92,0.0,0.0,54,0.00,CLR,,0.00,1005.0,WeatherDisplay:10.37,2013-07-13 18:14:00,
2013-07-13 13:19:00,85.9,66.8,30.08,East,90,1.2,0.0,53,0.00,FEW,,0.00,926.0,WeatherDisplay:10.37,2013-07-13 18:19:00,
2013-07-13 13:24:00,86.1,64.7,30.07,East,79,8.1,8.1,49,0.00,FEW,,0.00,953.0,WeatherDisplay:10.37,2013-07-13 18:24:00,
2013-07-13 13:29:00,86.0,66.3,30.07,ESE,106,0.0,0.0,52,0.00,FEW,,0.00,995.0,WeatherDisplay:10.37,2013-07-13 18:29:00,
2013-07-13 13:34:00,86.3,67.2,30.08,SE,133,0.0,0.0,53,0.00,CLR,,0.00,1018.0,WeatherDisplay:10.37,2013-07-13 18:34:00,
2013-07-13 13:39:00,86.6,65.2,30.08,ENE,67,6.9,6.9,49,0.00,CLR,,0.00,1023.0,WeatherDisplay:10.37,2013-07-13 18:39:00,
2013-07-13 13:44:00,85.7,64.9,30.08,ENE,61,8.1,8.1,50,0.00,CLR,,0.00,831.0,WeatherDisplay:10.37,2013-07-13 18:44:00,
2013-07-13 13:49:00,85.4,64.6,30.08,ENE,67,0.0,0.0,50,0.00,FEW,,0.00,995.0,WeatherDisplay:10.37,2013-07-13 18:49:00,
2013-07-13 13:54:00,85.7,66.0,30.08,East,86,1.2,0.0,52,0.00,FEW,,0.00,947.0,WeatherDisplay:10.37,2013-07-13 18:54:00,
2013-07-13 13:59:00,86.1,65.9,30.08,SSE,166,1.2,1.2,51,0.00,FEW,,0.00,882.0,WeatherDisplay:10.37,2013-07-13 18:59:00,
2013-07-13 14:04:00,86.7,67.0,30.08,SE,141,0.0,0.0,52,0.00,FEW,,0.00,969.0,WeatherDisplay:10.37,2013-07-13 19:04:00,
2013-07-13 14:09:00,87.3,67.0,30.08,ESE,121,0.0,0.0,51,0.00,CLR,,0.00,983.0,WeatherDisplay:10.37,2013-07-13 19:09:00,
2013-07-13 14:14:00,88.1,67.7,30.08,SE,137,0.0,0.6,51,0.00,CLR,,0.00,918.0,WeatherDisplay:10.37,2013-07-13 19:14:00,
2013-07-13 14:19:00,88.5,66.3,30.08,SE,137,0.0,0.0,48,0.00,CLR,,0.00,958.0,WeatherDisplay:10.37,2013-07-13 19:19:00,
2013-07-13 14:24:00,88.7,66.5,30.08,East,94,0.0,0.0,48,0.00,CLR,,0.00,940.0,WeatherDisplay:10.37,2013-07-13 19:24:00,
2013-07-13 14:29:00,89.3,67.6,30.08,East,83,0.0,0.0,49,0.00,CLR,,0.00,960.0,WeatherDisplay:10.37,2013-07-13 19:29:00,
2013-07-13 14:34:00,89.2,66.3,30.08,East,82,0.0,0.0,47,0.00,CLR,,0.00,939.0,WeatherDisplay:10.37,2013-07-13 19:34:00,
2013-07-13 14:39:00,89.3,67.0,30.08,East,80,0.0,0.9,48,0.00,CLR,,0.00,930.0,WeatherDisplay:10.37,2013-07-13 19:39:00,
2013-07-13 14:44:00,88.6,65.2,30.08,East,80,0.0,0.0,46,0.00,CLR,,0.00,916.0,WeatherDisplay:10.37,2013-07-13 19:44:00,
2013-07-13 14:49:00,88.8,66.0,30.07,ENE,78,0.0,0.5,47,0.00,CLR,,0.00,930.0,WeatherDisplay:10.37,2013-07-13 19:49:00,
2013-07-13 14:54:00,88.6,66.4,30.07,SSE,155,6.0,6.0,48,0.00,CLR,,0.00,951.0,WeatherDisplay:10.37,2013-07-13 19:54:00,
2013-07-13 14:59:00,88.6,67.0,30.07,South,171,5.8,0.0,49,0.00,CLR,,0.00,786.0,WeatherDisplay:10.37,2013-07-13 19:59:00,
2013-07-13 15:04:00,88.1,65.9,30.07,ENE,68,1.2,1.2,48,0.00,CLR,,0.00,861.0,WeatherDisplay:10.37,2013-07-13 20:04:00,
2013-07-13 15:09:00,87.1,65.0,30.07,ENE,72,0.0,0.1,48,0.00,FEW,,0.00,889.0,WeatherDisplay:10.37,2013-07-13 20:09:00,
2013-07-13 15:14:00,87.1,66.8,30.07,ENE,74,0.0,0.0,51,0.00,FEW,,0.00,816.0,WeatherDisplay:10.37,2013-07-13 20:14:00,
2013-07-13 15:19:00,87.9,66.9,30.06,East,96,0.0,0.0,50,0.00,FEW,,0.00,689.0,WeatherDisplay:10.37,2013-07-13 20:19:00,
2013-07-13 15:24:00,88.2,67.2,30.06,ENE,76,0.0,0.0,50,0.00,FEW,,0.00,823.0,WeatherDisplay:10.37,2013-07-13 20:24:00,
2013-07-13 15:29:00,88.5,66.3,30.06,SSE,160,5.8,5.8,48,0.00,FEW,,0.00,817.0,WeatherDisplay:10.37,2013-07-13 20:29:00,
2013-07-13 15:34:00,88.6,65.8,30.06,East,86,6.9,6.9,47,0.00,FEW,,0.00,809.0,WeatherDisplay:10.37,2013-07-13 20:34:00,
2013-07-13 15:39:00,88.7,66.5,30.06,SSE,159,0.0,0.0,48,0.00,FEW,,0.00,729.0,WeatherDisplay:10.37,2013-07-13 20:39:00,
2013-07-13 15:44:00,88.9,65.4,30.06,ESE,119,1.0,0.0,46,0.00,FEW,,0.00,659.0,WeatherDisplay:10.37,2013-07-13 20:44:00,
2013-07-13 15:49:00,88.9,66.1,30.06,SSE,165,6.9,0.0,47,0.00,FEW,,0.00,747.0,WeatherDisplay:10.37,2013-07-13 20:49:00,
2013-07-13 15:54:00,88.5,64.4,30.06,ENE,63,6.9,6.9,45,0.00,FEW,,0.00,726.0,WeatherDisplay:10.37,2013-07-13 20:54:00,
2013-07-13 15:59:00,88.2,66.6,30.06,ESE,112,0.0,0.0,49,0.00,FEW,,0.00,758.0,WeatherDisplay:10.37,2013-07-13 20:59:00,
2013-07-13 16:04:00,87.7,65.6,30.06,ENE,65,2.3,0.0,48,0.00,FEW,,0.00,738.0,WeatherDisplay:10.37,2013-07-13 21:04:00,
2013-07-13 16:09:00,87.9,66.4,30.06,SE,133,0.0,0.0,49,0.00,FEW,,0.00,712.0,WeatherDisplay:10.37,2013-07-13 21:09:00,
2013-07-13 16:14:00,88.5,66.3,30.06,SSE,153,6.9,6.9,48,0.00,FEW,,0.00,747.0,WeatherDisplay:10.37,2013-07-13 21:14:00,
2013-07-13 16:20:00,89.0,67.9,30.05,East,94,0.0,0.1,50,0.00,FEW,,0.00,724.0,WeatherDisplay:10.37,2013-07-13 21:20:00,
2013-07-13 16:25:00,89.1,65.6,30.05,ENE,69,5.8,5.8,46,0.00,FEW,,0.00,679.0,WeatherDisplay:10.37,2013-07-13 21:25:00,
2013-07-13 16:30:00,89.0,65.5,30.05,ENE,76,0.0,0.0,46,0.00,FEW,,0.00,682.0,WeatherDisplay:10.37,2013-07-13 21:30:00,
2013-07-13 16:35:00,88.9,66.7,30.05,ENE,76,0.0,0.0,48,0.00,FEW,,0.00,536.0,WeatherDisplay:10.37,2013-07-13 21:35:00,
2013-07-13 16:40:00,88.5,65.7,30.05,East,89,1.2,0.0,47,0.00,FEW,,0.00,642.0,WeatherDisplay:10.37,2013-07-13 21:40:00,
2013-07-13 16:45:00,88.6,65.2,30.05,East,86,1.2,5.0,46,0.00,FEW,,0.00,628.0,WeatherDisplay:10.37,2013-07-13 21:45:00,
2013-07-13 16:50:00,88.3,65.5,30.05,East,84,4.6,4.6,47,0.00,FEW,,0.00,622.0,WeatherDisplay:10.37,2013-07-13 21:50:00,
2013-07-13 16:55:00,88.2,66.6,30.05,East,83,1.2,0.0,49,0.00,FEW,,0.00,619.0,WeatherDisplay:10.37,2013-07-13 21:55:00,
2013-07-13 17:00:00,88.2,66.6,30.05,ENE,71,10.4,10.4,49,0.00,FEW,,0.00,587.0,WeatherDisplay:10.37,2013-07-13 22:00:00,
2013-07-13 17:05:00,88.2,67.2,30.05,ENE,73,0.0,0.0,50,0.00,FEW,,0.00,561.0,WeatherDisplay:10.37,2013-07-13 22:05:00,
2013-07-13 17:10:00,88.2,66.0,30.05,ENE,78,1.2,1.2,48,0.00,FEW,,0.00,552.0,WeatherDisplay:10.37,2013-07-13 22:10:00,
2013-07-13 17:15:00,87.8,66.3,30.05,East,86,6.0,6.0,49,0.00,FEW,,0.00,552.0,WeatherDisplay:10.37,2013-07-13 22:15:00,
2013-07-13 17:20:00,87.5,67.7,30.05,ENE,78,1.0,0.0,52,0.00,FEW,,0.00,536.0,WeatherDisplay:10.37,2013-07-13 22:20:00,
2013-07-13 17:25:00,87.9,66.4,30.05,East,92,0.0,0.0,49,0.00,FEW,,0.00,508.0,WeatherDisplay:10.37,2013-07-13 22:25:00,
2013-07-13 17:30:00,88.0,66.4,30.04,East,81,1.2,0.0,49,0.00,FEW,,0.00,487.0,WeatherDisplay:10.37,2013-07-13 22:30:00,
2013-07-13 17:35:00,88.3,66.7,30.04,ENE,74,0.0,0.0,49,0.00,FEW,,0.00,466.0,WeatherDisplay:10.37,2013-07-13 22:35:00,
2013-07-13 17:40:00,88.6,66.4,30.04,SSE,153,6.9,6.9,48,0.00,SCT,,0.00,471.0,WeatherDisplay:10.37,2013-07-13 22:40:00,
2013-07-13 17:45:00,88.8,66.0,30.04,East,84,2.3,2.3,47,0.00,FEW,,0.00,482.0,WeatherDisplay:10.37,2013-07-13 22:45:00,
2013-07-13 17:50:00,88.9,66.7,30.04,East,88,0.0,0.0,48,0.00,FEW,,0.00,353.0,WeatherDisplay:10.37,2013-07-13 22:50:00,
2013-07-13 17:55:00,88.8,66.0,30.04,East,80,1.2,1.2,47,0.00,SCT,,0.00,107.0,WeatherDisplay:10.37,2013-07-13 22:55:00,
2013-07-13 18:00:00,88.3,66.7,30.04,ENE,77,1.2,1.2,49,0.00,SCT,,0.00,397.0,WeatherDisplay:10.37,2013-07-13 23:00:00,
2013-07-13 18:05:00,88.3,66.1,30.03,ENE,78,0.0,0.0,48,0.00,SCT,,0.00,357.0,WeatherDisplay:10.37,2013-07-13 23:05:00,
2013-07-13 18:10:00,88.2,66.0,30.03,East,101,0.0,0.0,48,0.00,SCT,,0.00,345.0,WeatherDisplay:10.37,2013-07-13 23:10:00,
2013-07-13 18:15:00,88.1,66.5,30.03,SSE,148,0.0,0.0,49,0.00,SCT,,0.00,332.0,WeatherDisplay:10.37,2013-07-13 23:15:00,
2013-07-13 18:20:00,88.0,65.8,30.04,East,83,3.5,3.5,48,0.00,SCT,,0.00,322.0,WeatherDisplay:10.37,2013-07-13 23:20:00,
2013-07-13 18:25:00,87.8,66.3,30.04,ENE,78,3.5,3.5,49,0.00,SCT,,0.00,283.0,WeatherDisplay:10.37,2013-07-13 23:25:00,
2013-07-13 18:30:00,87.5,66.0,30.04,East,93,0.0,0.0,49,0.00,SCT,,0.00,281.0,WeatherDisplay:10.37,2013-07-13 23:30:00,
2013-07-13 18:35:00,87.1,66.2,30.04,East,80,4.6,4.6,50,0.00,BKN,,0.00,65.0,WeatherDisplay:10.37,2013-07-13 23:35:00,
2013-07-13 18:40:00,86.9,66.0,30.04,East,80,0.0,0.0,50,0.00,BKN,,0.00,70.0,WeatherDisplay:10.37,2013-07-13 23:40:00,
2013-07-13 18:45:00,86.7,65.3,30.05,ENE,76,1.2,1.2,49,0.00,BKN,,0.00,58.0,WeatherDisplay:10.37,2013-07-13 23:45:00,
2013-07-13 18:50:00,86.1,65.9,30.05,ENE,78,0.0,0.0,51,0.00,BKN,,0.00,63.0,WeatherDisplay:10.37,2013-07-13 23:50:00,
2013-07-13 18:55:00,85.8,65.6,30.04,ENE,78,0.0,0.0,51,0.00,BKN,,0.00,84.0,WeatherDisplay:10.37,2013-07-13 23:55:00,
2013-07-13 19:00:00,85.4,66.3,30.04,ENE,77,5.8,5.8,53,0.00,BKN,,0.00,60.0,WeatherDisplay:10.37,2013-07-14 00:00:00,
2013-07-13 19:05:00,85.1,66.0,30.04,ENE,78,0.0,0.0,53,0.00,BKN,,0.00,49.0,WeatherDisplay:10.37,2013-07-14 00:05:00,
2013-07-13 19:10:00,84.7,66.2,30.04,East,82,1.2,0.0,54,0.00,BKN,,0.00,47.0,WeatherDisplay:10.37,2013-07-14 00:10:00,
2013-07-13 19:15:00,84.2,66.3,30.04,East,84,0.0,0.0,55,0.00,BKN,,0.00,42.0,WeatherDisplay:10.37,2013-07-14 00:15:00,
2013-07-13 19:20:00,83.9,66.5,30.04,East,84,0.0,0.0,56,0.00,BKN,,0.00,39.0,WeatherDisplay:10.37,2013-07-14 00:20:00,
2013-07-13 19:25:00,83.6,65.7,30.04,East,91,2.3,0.0,55,0.00,BKN,,0.00,35.0,WeatherDisplay:10.37,2013-07-14 00:25:00,
2013-07-13 19:30:00,83.3,66.0,30.05,East,91,1.2,0.0,56,0.00,BKN,,0.00,33.0,WeatherDisplay:10.37,2013-07-14 00:30:00,
2013-07-13 19:35:00,82.9,65.6,30.04,East,96,0.0,0.0,56,0.00,BKN,,0.00,32.0,WeatherDisplay:10.37,2013-07-14 00:35:00,
2013-07-13 19:40:00,82.6,65.3,30.04,East,96,0.0,0.0,56,0.00,BKN,,0.00,25.0,WeatherDisplay:10.37,2013-07-14 00:40:00,
2013-07-13 19:45:00,82.3,65.5,30.05,East,96,0.0,0.0,57,0.00,BKN,,0.00,21.0,WeatherDisplay:10.37,2013-07-14 00:45:00,
2013-07-13 19:50:00,82.0,65.3,30.05,East,96,0.0,0.0,57,0.00,BKN,,0.00,18.0,WeatherDisplay:10.37,2013-07-14 00:50:00,
2013-07-13 19:55:00,81.5,64.8,30.05,East,94,0.0,0.0,57,0.00,BKN,,0.00,18.0,WeatherDisplay:10.37,2013-07-14 00:55:00,
2013-07-13 20:00:00,81.1,64.9,30.04,East,94,0.0,0.0,58,0.00,BKN,,0.00,18.0,WeatherDisplay:10.37,2013-07-14 01:00:00,
2013-07-13 20:05:00,80.8,64.6,30.04,East,94,0.0,0.0,58,0.00,BKN,,0.00,16.0,WeatherDisplay:10.37,2013-07-14 01:05:00,
2013-07-13 20:10:00,80.4,64.8,30.04,East,94,0.0,0.0,59,0.00,BKN,,0.00,11.0,WeatherDisplay:10.37,2013-07-14 01:10:00,
2013-07-13 20:15:00,80.0,64.9,30.04,East,94,0.0,0.0,60,0.00,BKN,,0.00,7.0,WeatherDisplay:10.37,2013-07-14 01:15:00,
2013-07-13 20:20:00,79.7,64.6,30.04,East,94,0.0,0.0,60,0.00,BKN,,0.00,5.0,WeatherDisplay:10.37,2013-07-14 01:20:00,
2013-07-13 20:25:00,79.3,64.7,30.04,East,94,0.0,0.0,61,0.00,OVC,,0.00,0.0,WeatherDisplay:10.37,2013-07-14 01:25:00,
2013-07-13 20:30:00,79.0,64.4,30.04,East,94,0.0,0.0,61,0.00,OVC,,0.00,0.0,WeatherDisplay:10.37,2013-07-14 01:30:00,
2013-07-13 20:35:00,78.7,64.6,30.05,East,94,0.0,0.0,62,0.00,CLR,,0.00,0.0,WeatherDisplay:10.37,2013-07-14 01:35:00,
2013-07-13 20:40:00,78.4,64.8,30.05,East,94,0.0,0.0,63,0.00,CLR,,0.00,0.0,WeatherDisplay:10.37,2013-07-14 01:40:00,
2013-07-13 20:45:00,78.0,64.4,30.05,East,94,0.0,0.0,63,0.00,CLR,,0.00,0.0,WeatherDisplay:10.37,2013-07-14 01:45:00,
2013-07-13 20:50:00,77.7,64.1,30.05,East,94,0.0,0.0,63,0.00,CLR,,0.00,0.0,WeatherDisplay:10.37,2013-07-14 01:50:00,
2013-07-13 20:55:00,77.4,63.8,30.05,East,94,0.0,0.0,63,0.00,CLR,,0.00,0.0,WeatherDisplay:10.37,2013-07-14 01:55:00,
2013-07-13 21:00:00,77.1,64.4,30.05,East,94,0.0,0.0,65,0.00,CLR,,0.00,0.0,WeatherDisplay:10.37,2013-07-14 02:00:00,
2013-07-13 21:05:00,76.9,64.7,30.05,East,94,0.0,0.0,66,0.00,CLR,,0.00,0.0,WeatherDisplay:10.37,2013-07-14 02:05:00,
2013-07-13 21:10:00,76.5,64.7,30.05,East,94,0.0,0.0,67,0.00,CLR,,0.00,0.0,WeatherDisplay:10.37,2013-07-14 02:10:00,
2013-07-13 21:15:00,76.1,64.8,30.06,East,94,0.0,0.0,68,0.00,CLR,,0.00,0.0,WeatherDisplay:10.37,2013-07-14 02:15:00,
2013-07-13 21:21:00,75.7,64.8,30.06,East,94,0.0,0.0,69,0.00,CLR,,0.00,0.0,WeatherDisplay:10.37,2013-07-14 02:21:00,
2013-07-13 21:26:00,75.2,64.7,30.06,East,94,0.0,0.0,70,0.00,CLR,,0.00,0.0,WeatherDisplay:10.37,2013-07-14 02:26:00,
2013-07-13 21:31:00,75.0,64.5,30.06,East,94,0.0,0.0,70,0.00,CLR,,0.00,0.0,WeatherDisplay:10.37,2013-07-14 02:31:00,
2013-07-13 21:36:00,74.7,64.7,30.06,East,94,0.0,0.0,71,0.00,CLR,,0.00,0.0,WeatherDisplay:10.37,2013-07-14 02:36:00,
2013-07-13 21:41:00,74.3,64.7,30.07,East,94,0.0,0.0,72,0.00,CLR,,0.00,0.0,WeatherDisplay:10.37,2013-07-14 02:41:00,
2013-07-13 21:46:00,74.1,64.9,30.07,East,94,0.0,0.0,73,0.00,CLR,,0.00,0.0,WeatherDisplay:10.37,2013-07-14 02:46:00,
2013-07-13 21:51:00,73.9,65.1,30.07,East,94,0.0,0.0,74,0.00,CLR,,0.00,0.0,WeatherDisplay:10.37,2013-07-14 02:51:00,
2013-07-13 21:56:00,73.7,64.9,30.08,East,94,0.0,0.0,74,0.00,CLR,,0.00,0.0,WeatherDisplay:10.37,2013-07-14 02:56:00,
2013-07-13 22:01:00,73.5,65.1,30.07,East,94,0.0,0.0,75,0.00,CLR,,0.00,0.0,WeatherDisplay:10.37,2013-07-14 03:01:00,
2013-07-13 22:06:00,73.3,65.3,30.07,East,94,0.0,0.0,76,0.00,CLR,,0.00,0.0,WeatherDisplay:10.37,2013-07-14 03:06:00,
2013-07-13 22:11:00,73.1,65.1,30.07,East,94,0.0,0.0,76,0.00,CLR,,0.00,0.0,WeatherDisplay:10.37,2013-07-14 03:11:00,
2013-07-13 22:16:00,72.8,65.2,30.07,East,94,0.0,0.0,77,0.00,CLR,,0.00,0.0,WeatherDisplay:10.37,2013-07-14 03:16:00,
2013-07-13 22:21:00,72.5,65.2,30.07,East,93,0.0,0.0,78,0.00,CLR,,0.00,0.0,WeatherDisplay:10.37,2013-07-14 03:21:00,
2013-07-13 22:26:00,72.3,65.1,30.08,East,93,0.0,0.0,78,0.00,CLR,,0.00,0.0,WeatherDisplay:10.37,2013-07-14 03:26:00,
2013-07-13 22:31:00,72.1,65.2,30.08,East,92,0.0,0.0,79,0.00,CLR,,0.00,0.0,WeatherDisplay:10.37,2013-07-14 03:31:00,
2013-07-13 22:36:00,71.8,64.9,30.08,East,93,0.0,0.0,79,0.00,CLR,,0.00,0.0,WeatherDisplay:10.37,2013-07-14 03:36:00,
2013-07-13 22:41:00,71.7,65.2,30.08,East,93,0.0,0.0,80,0.00,CLR,,0.00,0.0,WeatherDisplay:10.37,2013-07-14 03:41:00,
2013-07-13 22:46:00,71.5,65.0,30.08,East,93,0.0,0.0,80,0.00,CLR,,0.00,0.0,WeatherDisplay:10.37,2013-07-14 03:46:00,
2013-07-13 22:51:00,71.4,64.9,30.08,East,93,0.0,0.0,80,0.00,CLR,,0.00,0.0,WeatherDisplay:10.37,2013-07-14 03:51:00,
2013-07-13 22:56:00,71.3,65.2,30.08,East,92,0.0,0.0,81,0.00,CLR,,0.00,0.0,WeatherDisplay:10.37,2013-07-14 03:56:00,
2013-07-13 23:01:00,71.2,65.1,30.08,East,93,0.0,0.0,81,0.00,CLR,,0.00,0.0,WeatherDisplay:10.37,2013-07-14 04:01:00,
2013-07-13 23:06:00,71.1,65.0,30.08,East,93,0.0,0.0,81,0.00,CLR,,0.00,0.0,WeatherDisplay:10.37,2013-07-14 04:06:00,
2013-07-13 23:11:00,71.0,64.9,30.08,East,93,0.0,0.0,81,0.00,CLR,,0.00,0.0,WeatherDisplay:10.37,2013-07-14 04:11:00,
2013-07-13 23:16:00,70.8,65.0,30.08,East,93,0.0,0.0,82,0.00,CLR,,0.00,0.0,WeatherDisplay:10.37,2013-07-14 04:16:00,
2013-07-13 23:21:00,70.7,64.9,30.08,East,93,0.0,0.0,82,0.00,CLR,,0.00,0.0,WeatherDisplay:10.37,2013-07-14 04:21:00,
2013-07-13 23:26:00,70.5,64.7,30.08,East,93,0.0,0.0,82,0.00,CLR,,0.00,0.0,WeatherDisplay:10.37,2013-07-14 04:26:00,
2013-07-13 23:31:00,70.4,65.0,30.08,East,93,0.0,0.0,83,0.00,CLR,,0.00,0.0,WeatherDisplay:10.37,2013-07-14 04:31:00,
2013-07-13 23:36:00,70.3,64.9,30.08,East,93,0.0,0.0,83,0.00,CLR,,0.00,0.0,WeatherDisplay:10.37,2013-07-14 04:36:00,
2013-07-13 23:41:00,70.1,64.7,30.08,East,92,0.0,0.0,83,0.00,CLR,,0.00,0.0,WeatherDisplay:10.37,2013-07-14 04:41:00,
2013-07-13 23:46:00,70.0,64.6,30.08,East,93,0.0,0.0,83,0.00,CLR,,0.00,0.0,WeatherDisplay:10.37,2013-07-14 04:46:00,
2013-07-13 23:51:00,69.9,64.5,30.08,East,92,0.0,0.0,83,0.00,CLR,,0.00,0.0,WeatherDisplay:10.37,2013-07-14 04:51:00,
2013-07-13 23:56:00,69.7,64.3,30.08,East,93,0.0,0.0,83,0.00,CLR,,0.00,0.0,WeatherDisplay:10.37,2013-07-14 04:56:00,